User: anonymous   Login
Location: Vancouver
(49.2500°N, 123.1330°W)
Time: 23:30:46
(UTC-07:00)
Language:

Transit 2A Rocket - Orbit

View from above orbital plane
View from above orbital plane
View from above satellite
View from above satellite

Ground track
Ground track

The orbit data is extracted from the following two-line orbital elements,

1    47U 60007C   16176.93680757 -.00000024 +00000-0 +19858-4 0  9992
2    47 066.6665 080.8418 0235791 285.9951 071.5296 14.41835724925132
Epoch (UTC): 24 June 2016 22:29:00
Eccentricity: 0.0235791
inclination: 66.6665°
perigee height: 584 km
apogee height: 920 km
right ascension of ascending node: 80.8418°
argument of perigee: 285.9951°
revolutions per day: 14.41835724
mean anomaly at epoch: 71.5296°
orbit number at epoch: 92513

The dashed part of the orbit path shows where the satellite is in the earth's shadow,  

DLR